Date,TemperatureHighF,TemperatureAvgF,TemperatureLowF,DewpointHighF,DewpointAvgF,DewpointLowF,HumidityHigh,HumidityAvg,HumidityLow,PressureMaxIn,PressureMinIn,WindSpeedMaxMPH,WindSpeedAvgMPH,GustSpeedMaxMPH,PrecipitationSumIn
2013-1-1,48,45,42,46,40,28,97,83,52,30.12,29.92,4,1,6,0.09
2013-1-2,46,43,37,45,41,36,98,92,77,30.22,29.94,8,2,11,0.24
2013-1-3,42,37,25,38,35,24,97,92,83,30.29,30.17,4,1,4,0.00
2013-1-4,49,35,21,32,22,18,96,65,31,30.33,30.20,11,2,13,0.00
2013-1-5,52,35,22,33,24,19,90,69,29,30.40,30.27,7,2,9,0.00
2013-1-6,53,41,33,39,35,28,92,80,52,30.27,30.06,5,1,5,0.00
2013-1-7,53,36,26,38,28,23,95,76,38,30.47,30.20,10,2,10,0.00
2013-1-8,54,37,23,39,31,21,94,81,45,30.50,30.38,4,1,4,0.00
2013-1-9,68,47,30,52,41,29,95,81,53,30.46,30.34,7,1,8,0.00
2013-1-10,65,49,38,49,41,34,96,77,44,30.55,30.43,8,2,8,0.00
2013-1-11,48,45,39,48,42,35,98,90,66,30.47,30.16,4,1,5,0.20
2013-1-12,71,56,49,64,54,48,99,93,73,30.17,30.09,4,1,4,0.01
2013-1-13,75,60,50,66,57,50,99,88,60,30.14,30.03,6,1,11,0.00
2013-1-14,65,60,51,62,58,50,99,95,84,30.18,30.08,13,1,15,0.01
2013-1-15,51,44,42,50,43,42,99,97,95,30.27,30.09,13,3,15,0.01
2013-1-16,49,45,41,49,44,41,99,99,97,30.11,29.97,9,2,10,0.21
2013-1-17,50,49,44,50,48,43,99,99,97,30.07,29.93,14,2,16,0.67
2013-1-18,46,36,25,36,27,23,92,72,42,30.56,30.45,13,2,13,0.54
2013-1-19,55,34,21,39,26,20,95,77,32,30.53,30.17,5,1,8,0.00
2013-1-20,63,43,29,37,30,25,93,68,24,30.17,29.98,18,2,18,0.00
2013-1-21,60,41,24,38,25,10,94,60,23,30.12,29.85,9,2,11,0.00
2013-1-22,37,31,17,36,6,-17,72,35,10,30.32,29.98,12,4,15,0.00
2013-1-23,41,26,13,20,10,0,86,56,21,30.40,30.07,10,2,11,0.00
2013-1-24,37,29,17,25,11,-5,79,50,18,30.56,29.97,19,4,19,0.00
2013-1-25,27,22,15,24,16,7,91,76,45,30.57,30.13,3,1,4,0.00
2013-1-26,37,30,23,34,27,22,95,92,86,30.44,30.11,3,0,4,0.04
2013-1-27,42,29,17,31,23,16,95,81,52,30.63,30.43,4,1,6,0.00
2013-1-28,52,41,26,46,36,24,95,82,59,30.53,30.22,4,1,7,0.02
2013-1-29,74,57,42,54,49,41,97,78,47,30.24,30.06,8,2,8,0.01
2013-1-30,72,66,52,63,60,50,94,83,71,30.07,29.37,13,4,17,0.28
2013-1-31,63,46,29,59,28,14,94,54,25,30.03,29.42,22,6,22,0.40
2013-2-1,40,31,21,28,11,-8,84,48,14,30.43,29.88,22,5,26,0.00
2013-2-2,43,31,14,31,13,2,85,53,18,30.43,30.04,11,2,15,0.00
2013-2-3,50,38,28,35,27,21,92,66,34,30.04,29.85,11,3,12,0.00
2013-2-4,50,36,21,28,20,14,89,58,26,30.17,30.01,8,2,11,0.00
2013-2-5,60,43,30,33,30,25,86,61,29,30.01,29.87,11,2,11,0.00
2013-2-6,62,40,25,40,24,12,93,64,15,30.32,29.99,15,2,15,0.00
2013-2-7,47,39,29,40,34,25,94,81,61,30.37,30.04,8,2,9,0.35
2013-2-8,55,45,38,44,38,27,96,79,47,30.05,29.81,20,5,20,0.76
2013-2-9,53,36,23,31,20,5,92,60,15,30.39,30.05,12,3,15,0.00
2013-2-10,54,36,19,35,22,14,91,64,21,30.52,30.22,5,2,8,0.05
2013-2-11,60,52,40,60,50,35,98,95,83,30.22,29.90,5,1,10,0.12
2013-2-12,62,51,37,53,34,18,97,60,19,30.08,29.92,11,2,12,0.00
2013-2-13,47,45,41,46,42,36,97,92,76,29.97,29.62,10,2,21,0.30
2013-2-14,53,39,28,38,30,26,97,75,39,30.09,29.83,7,2,8,0.00
2013-2-15,64,41,24,47,28,23,95,68,21,30.11,29.92,15,2,16,0.00
2013-2-16,45,36,31,34,32,29,95,85,61,29.99,29.85,11,2,11,0.34
2013-2-17,38,28,17,29,13,0,91,56,22,30.31,29.93,19,2,25,0.00
2013-2-18,53,31,14,26,16,6,90,61,16,30.44,30.26,7,2,8,0.00
2013-2-19,50,39,27,49,36,23,97,89,63,30.26,29.85,7,2,14,0.18
2013-2-20,53,39,28,53,18,-2,98,49,10,30.17,29.97,11,3,18,0.00
2013-2-21,54,38,20,28,17,5,86,50,14,30.29,30.12,12,2,15,0.00
2013-2-22,41,36,32,34,30,21,94,80,44,30.37,30.16,4,2,8,0.05
2013-2-23,43,40,36,42,38,34,97,95,93,30.16,29.82,5,2,8,0.30
2013-2-24,63,46,31,48,34,18,99,71,18,30.06,29.80,11,2,11,0.02
2013-2-25,43,35,28,31,23,20,88,64,40,30.25,30.06,11,2,16,0.00
2013-2-26,53,42,29,53,39,25,99,89,67,30.18,29.56,15,2,15,0.56
2013-2-27,61,48,38,44,38,30,99,75,31,29.78,29.62,12,3,14,0.01
2013-2-28,51,41,31,41,30,23,95,65,34,29.87,29.70,14,3,15,0.00
2013-3-1,51,39,25,34,26,22,91,62,36,29.92,29.84,9,3,15,0.00
2013-3-2,48,38,29,32,24,17,88,58,34,29.94,29.82,11,3,13,0.00
2013-3-3,48,36,28,20,17,14,64,47,26,30.00,29.84,13,4,16,0.00
2013-3-4,52,35,24,52,12,-4,76,44,10,30.12,29.99,12,3,19,0.00
2013-3-5,50,42,31,43,36,27,97,81,42,30.09,29.58,7,1,8,0.12
2013-3-6,47,41,35,40,32,27,97,73,53,30.04,29.52,27,8,30,0.06
2013-3-7,51,41,31,35,27,23,91,58,37,30.33,30.04,15,4,19,0.99
2013-3-8,57,42,24,28,22,16,92,49,20,30.37,30.15,15,4,22,0.38
2013-3-9,64,42,26,33,24,8,88,57,11,30.35,30.23,8,2,11,0.39
2013-3-10,69,45,26,69,28,6,91,53,10,30.34,30.19,8,2,8,0.00
2013-3-11,72,51,31,52,40,26,88,68,41,30.26,29.93,7,2,11,0.00
2013-3-12,70,60,48,64,51,31,99,74,43,29.96,29.71,15,3,15,0.71
2013-3-13,59,44,29,38,24,13,90,50,18,30.15,29.94,16,5,21,0.50
2013-3-14,55,38,26,21,15,-2,74,44,11,30.25,30.11,15,4,16,0.00
2013-3-15,66,44,22,34,25,18,87,54,20,30.20,29.90,10,2,15,0.00
2013-3-16,78,57,36,50,40,31,88,59,26,29.90,29.61,11,2,11,0.00
2013-3-17,55,48,40,51,41,36,93,79,63,30.21,29.83,11,3,15,0.00
2013-3-18,42,39,37,40,38,36,97,94,89,30.22,29.86,10,2,10,0.17
2013-3-19,69,51,39,68,37,1,98,56,10,30.04,29.82,16,4,21,0.00
2013-3-20,59,44,30,59,23,-3,78,34,10,30.12,29.81,9,3,11,0.63
2013-3-21,47,38,31,34,16,2,80,44,18,29.99,29.74,15,5,21,0.00
2013-3-22,54,36,17,53,15,-4,80,41,10,30.10,29.96,11,3,13,0.00
2013-3-23,57,41,27,33,24,11,86,58,16,30.07,29.91,5,1,7,3.50
2013-3-24,41,36,29,38,34,25,95,91,82,29.96,29.58,10,2,15,0.76
2013-3-25,50,40,34,40,30,19,97,71,33,29.81,29.56,23,4,23,0.02
2013-3-26,50,41,27,30,25,22,87,53,37,30.12,29.81,13,4,14,0.00
2013-3-27,54,42,30,26,21,13,71,47,21,30.24,30.11,19,5,19,0.00
2013-3-28,59,43,29,28,21,13,79,48,17,30.31,30.14,14,4,17,0.00
2013-3-29,62,42,24,34,22,9,88,53,12,30.35,30.17,11,2,11,0.00
2013-3-30,68,49,30,39,28,12,88,54,12,30.26,30.07,8,1,8,0.00
2013-3-31,68,54,43,57,49,36,97,83,58,30.09,29.79,5,1,10,0.48
2013-4-1,74,59,48,55,44,29,99,67,20,29.99,29.80,15,3,15,0.04
2013-4-2,62,45,29,62,27,3,92,51,10,30.15,29.99,15,3,15,0.00
2013-4-3,61,45,28,61,26,1,86,47,10,30.30,30.13,9,2,11,0.00
2013-4-4,51,42,36,38,29,18,95,65,33,30.37,29.93,14,3,14,0.53
2013-4-5,67,48,36,48,40,32,96,77,31,30.01,29.86,9,3,12,0.05
2013-4-6,66,49,33,39,27,8,95,55,13,30.27,30.00,12,3,12,0.00
2013-4-7,75,56,32,41,35,29,92,54,20,30.27,30.09,9,2,10,0.00
2013-4-8,83,64,45,56,48,41,94,61,25,30.15,30.03,8,2,9,0.00
2013-4-9,88,70,51,60,52,44,95,60,22,30.17,30.04,14,2,14,0.00
2013-4-10,90,72,54,62,54,48,94,61,23,30.09,29.92,7,2,11,0.00
2013-4-11,84,71,61,65,58,53,89,67,36,29.99,29.78,9,2,10,0.00
2013-4-12,86,72,61,72,61,36,99,71,32,29.80,29.58,9,3,11,0.41
2013-4-13,76,60,41,48,38,26,92,52,16,30.00,29.75,9,2,11,0.00
2013-4-14,83,61,39,83,40,20,96,54,10,30.10,30.00,5,2,8,0.00
2013-4-15,72,63,56,58,55,51,95,77,52,30.22,30.02,14,2,60,0.09
2013-4-16,79,64,54,61,57,51,94,80,45,30.30,30.19,7,2,7,0.05
2013-4-17,82,66,52,65,58,51,97,78,48,30.22,30.10,8,1,8,0.00
2013-4-18,83,69,58,66,59,51,95,72,35,30.19,30.03,7,2,11,0.00
2013-4-19,82,70,64,68,64,60,98,82,55,30.05,29.68,23,2,23,0.76
2013-4-20,66,55,43,64,38,24,99,60,20,30.25,29.80,15,3,15,0.05
2013-4-21,63,51,37,40,36,30,94,59,32,30.50,30.28,12,3,16,0.05
2013-4-22,63,50,36,45,37,33,91,64,35,30.49,30.27,11,4,14,0.01
2013-4-23,69,54,45,50,45,42,90,73,42,30.28,30.11,9,3,11,0.01
2013-4-24,79,61,41,58,50,40,96,71,39,30.14,29.95,9,2,13,0.00
2013-4-25,72,59,43,56,42,30,90,58,21,30.27,29.99,12,3,15,0.00
2013-4-26,73,55,37,49,37,23,95,61,16,30.42,30.27,10,2,11,0.00
2013-4-27,74,60,47,53,46,34,93,68,24,30.38,30.25,5,1,7,0.00
2013-4-28,60,56,52,56,53,50,98,91,80,30.26,30.10,4,1,4,0.30
2013-4-29,73,61,54,65,59,53,99,93,69,30.09,29.96,4,1,4,0.39
2013-4-30,67,59,52,61,56,50,99,90,73,30.18,30.00,8,2,10,0.32
2013-5-1,62,59,54,60,56,53,96,92,89,30.33,30.17,9,3,14,0.02
2013-5-2,63,58,51,58,55,50,95,89,81,30.34,30.25,10,2,10,0.00
2013-5-3,70,56,44,56,48,38,98,76,38,30.28,30.17,11,2,11,0.00
2013-5-4,62,54,49,53,48,43,88,79,69,30.22,30.09,11,3,13,0.00
2013-5-5,59,54,48,55,50,45,92,85,79,30.11,29.99,11,4,14,0.30
2013-5-6,66,59,56,63,58,54,98,95,90,30.02,29.84,9,3,17,1.90
2013-5-7,68,58,50,63,56,50,99,93,78,29.94,29.85,4,1,6,0.19
2013-5-8,69,59,49,69,56,48,99,91,67,30.00,29.91,4,1,8,0.01
2013-5-9,83,65,52,64,55,50,99,76,33,30.05,29.97,10,1,10,0.00
2013-5-10,86,69,52,67,59,51,97,75,39,30.06,29.93,9,1,9,0.00
2013-5-11,84,71,64,68,63,58,95,79,47,29.95,29.78,8,2,11,0.21
2013-5-12,73,64,47,100,49,29,98,64,10,30.03,29.79,11,3,13,0.01
2013-5-13,67,53,40,47,36,24,94,61,20,30.18,30.03,11,2,11,0.00
2013-5-14,73,54,36,50,39,27,95,65,20,30.25,30.07,8,2,10,0.00
2013-5-15,89,66,47,65,55,44,91,69,36,30.06,29.88,7,1,8,0.00
2013-5-16,86,71,56,66,60,54,94,70,35,29.97,29.88,8,1,11,0.00
2013-5-17,88,72,57,68,62,55,95,74,37,30.08,29.97,7,1,7,0.00
2013-5-18,78,68,59,70,64,57,96,88,71,30.17,30.07,4,1,7,0.65
2013-5-19,75,68,62,73,66,62,99,96,86,30.15,30.06,4,1,7,0.63
2013-5-20,80,69,44,73,68,44,99,95,73,30.12,29.79,10,1,10,0.46
2013-5-21,86,73,65,75,70,65,99,89,63,30.05,29.93,5,1,7,0.00
2013-5-22,86,74,36,72,69,27,99,86,56,30.05,29.90,6,1,7,0.01
2013-5-23,83,72,42,72,67,41,99,87,58,29.96,29.67,7,1,8,0.11
2013-5-24,70,63,41,67,51,31,99,69,27,30.19,29.69,15,4,28,0.01
2013-5-25,76,56,39,50,38,22,96,62,14,30.26,30.12,11,2,15,0.01
2013-5-26,77,58,43,55,45,34,96,70,23,30.27,30.16,8,1,8,0.00
2013-5-27,82,63,46,61,52,45,97,73,32,30.28,30.14,7,1,8,0.00
2013-5-28,86,70,55,69,61,52,96,77,50,30.25,30.13,6,1,8,0.00
2013-5-29,87,72,58,67,62,56,97,75,43,30.23,30.15,8,1,9,0.00
2013-5-30,88,72,58,70,63,56,98,76,41,30.27,30.17,7,1,9,0.00
2013-5-31,88,73,60,71,65,59,98,78,45,30.22,30.10,8,1,8,0.00
2013-6-1,90,76,65,71,66,61,99,74,39,30.14,30.01,7,1,12,0.00
2013-6-2,87,76,66,71,67,63,96,77,53,30.05,29.90,7,2,11,0.59
2013-6-3,84,73,64,74,70,64,99,91,67,29.96,29.83,8,1,8,0.33
2013-6-4,79,69,61,69,64,61,99,87,60,30.10,29.94,5,1,7,0.01
2013-6-5,82,70,59,68,63,59,99,81,50,30.15,30.02,9,1,9,0.00
2013-6-6,74,69,63,72,66,57,99,91,74,30.05,29.81,8,1,8,0.58
2013-6-7,73,70,68,73,70,68,99,98,96,29.85,29.53,11,2,13,1.77
2013-6-8,85,72,65,70,67,64,99,86,53,30.09,29.81,6,1,10,0.02
2013-6-9,88,74,63,76,70,62,99,86,57,30.16,30.05,24,1,24,1.16
2013-6-10,82,73,69,79,73,69,99,97,89,30.10,29.89,5,1,7,0.56
2013-6-11,86,75,66,71,67,62,99,79,47,29.95,29.89,9,2,12,0.00
2013-6-12,90,76,61,75,68,60,99,81,51,29.97,29.86,9,1,9,0.00
2013-6-13,94,77,66,79,70,60,99,84,41,29.87,29.59,27,2,35,0.17
2013-6-14,81,69,59,67,59,54,98,74,42,30.01,29.73,98,3,98,0.00
2013-6-15,86,71,56,66,60,38,99,72,37,30.12,30.01,8,1,8,0.76
2013-6-16,87,74,62,71,66,59,96,78,54,30.11,29.99,7,1,10,0.00
2013-6-17,84,76,70,76,70,66,93,83,66,30.03,29.93,4,1,6,0.00
2013-6-18,83,73,68,75,71,68,99,91,73,29.97,29.76,8,1,11,0.45
2013-6-19,81,71,62,72,66,61,99,86,62,30.13,29.88,8,1,8,0.01
2013-6-20,84,71,62,67,63,57,99,78,45,30.25,30.13,7,1,9,0.00
2013-6-21,85,69,54,65,58,50,97,72,34,30.27,30.19,8,1,10,0.00
2013-6-22,85,74,64,72,68,62,96,85,59,30.22,30.12,8,2,9,0.00
2013-6-23,87,75,66,77,71,66,99,88,64,30.22,30.12,5,1,5,0.05
2013-6-24,88,77,68,77,72,67,99,86,63,30.21,30.08,4,1,7,0.00
2013-6-25,92,78,68,76,71,68,99,82,50,30.12,30.00,7,1,8,0.00
2013-6-26,92,77,68,76,71,65,99,84,51,30.04,29.88,12,1,12,0.57
2013-6-27,89,76,67,78,72,66,99,88,60,29.93,29.70,8,1,49,0.64
2013-6-28,90,77,70,79,73,68,99,89,60,29.75,29.56,11,1,19,0.56
2013-6-29,85,75,69,77,72,69,99,91,70,29.73,29.60,4,1,5,0.24
2013-6-30,87,74,68,79,72,66,99,95,73,29.87,29.71,7,1,10,0.48
2013-7-1,83,75,69,77,73,69,99,94,79,30.00,29.85,4,1,7,0.65
2013-7-2,76,74,72,76,73,72,99,99,97,30.19,29.99,3,1,5,0.19
2013-7-3,86,76,72,80,75,70,99,95,77,30.25,30.15,6,1,7,0.91
2013-7-4,88,78,71,79,74,70,99,89,65,30.29,30.18,6,1,7,0.00
2013-7-5,89,78,70,79,74,69,99,88,65,30.28,30.16,5,1,9,0.00
2013-7-6,88,78,71,77,73,70,99,86,59,30.26,30.12,5,1,6,0.06
2013-7-7,88,77,67,78,73,66,99,88,66,30.19,30.06,4,1,10,0.04
2013-7-8,89,77,70,77,73,70,99,88,57,30.18,30.09,4,1,7,0.59
2013-7-9,89,77,70,80,74,70,99,91,69,30.16,30.06,4,1,6,0.00
2013-7-10,88,77,70,79,74,70,99,89,66,30.11,29.94,8,1,11,0.25
2013-7-11,81,74,71,77,73,70,99,97,86,29.98,29.88,11,1,11,0.38
2013-7-12,76,72,69,73,71,69,99,95,84,30.04,29.87,7,1,8,0.01
2013-7-13,80,73,69,78,72,68,99,97,87,30.19,30.01,5,1,7,0.25
2013-7-14,88,77,69,79,73,69,99,88,63,30.31,30.19,50,1,50,0.01
2013-7-15,91,77,-8,78,71,-9,99,84,52,30.33,30.25,4,1,6,0.00
2013-7-16,94,78,67,80,73,66,99,85,52,30.27,30.17,4,1,97,0.22
2013-7-17,92,81,73,83,76,72,99,86,55,30.22,30.11,3,1,6,0.00
2013-7-18,95,82,72,81,76,72,99,84,47,30.14,30.03,25,1,25,3.64
2013-7-19,91,81,72,80,75,72,99,83,60,30.09,29.98,5,1,8,3.09
2013-7-20,89,79,74,79,75,73,97,87,63,30.03,29.91,6,1,8,0.00
2013-7-21,120,78,73,100,74,71,99,89,67,29.99,29.90,50,1,50,0.00
2013-7-22,88,78,71,80,74,70,99,89,64,29.96,29.82,4,1,116,0.12
2013-7-23,90,80,72,75,72,68,99,81,51,29.84,29.72,9,2,11,0.00
2013-7-24,96,77,68,76,70,68,99,84,50,29.86,29.73,5,1,8,0.00
2013-7-25,80,72,65,71,68,64,98,86,68,30.04,29.84,8,2,9,0.12
2013-7-26,86,72,60,70,65,60,99,82,46,30.11,30.03,6,1,7,0.00
2013-7-27,86,72,63,75,69,62,99,91,54,30.06,29.94,5,1,12,0.12
2013-7-28,88,76,68,77,70,67,99,86,51,30.00,29.92,5,1,7,0.00
2013-7-29,87,75,66,71,67,58,99,79,38,30.16,29.99,5,1,8,0.01
2013-7-30,87,72,59,72,65,59,99,82,47,30.23,30.14,4,1,4,0.00
2013-7-31,84,74,68,76,71,68,99,93,72,30.15,30.00,5,0,5,0.11
2013-8-1,86,75,69,77,72,67,99,92,66,30.02,29.86,15,1,15,0.53
2013-8-2,88,75,65,75,69,63,99,84,45,30.02,29.91,5,1,5,0.04
2013-8-3,89,76,68,80,73,68,99,91,65,30.02,29.92,5,1,6,0.89
2013-8-4,86,76,64,74,66,54,99,72,35,30.04,29.94,8,2,9,0.00
2013-8-5,82,72,61,72,65,60,99,81,49,30.10,30.01,8,1,8,0.78
2013-8-6,81,72,65,74,68,64,99,89,65,30.16,30.00,6,1,11,0.18
2013-8-7,86,75,66,75,71,65,99,87,61,30.25,30.03,4,1,7,0.00
2013-8-8,89,77,68,77,72,67,99,86,54,30.27,30.00,5,1,6,0.00
2013-8-9,91,79,69,79,74,68,99,85,56,30.23,29.97,11,1,11,0.76
2013-8-10,91,78,73,78,74,72,99,90,55,30.10,30.01,6,1,53,1.72
2013-8-11,92,78,70,78,73,69,99,87,48,30.11,30.01,5,1,9,0.01
2013-8-12,92,79,69,76,72,64,99,82,41,30.06,29.94,8,1,7,0.00
2013-8-13,89,77,71,78,73,70,99,91,61,29.98,29.78,12,1,17,0.18
2013-8-14,76,70,59,71,65,58,99,86,65,30.10,29.82,7,2,8,0.02
2013-8-15,78,64,57,64,58,52,99,84,42,30.17,30.08,7,1,57,0.00
2013-8-16,71,64,56,66,60,56,99,90,71,30.19,30.10,4,1,4,0.00
2013-8-17,72,66,60,71,65,59,99,97,90,30.19,30.12,9,2,9,0.20
2013-8-18,78,71,66,72,68,64,99,91,73,30.21,30.11,7,2,10,0.05
2013-8-19,76,69,66,74,68,65,99,98,91,30.21,30.10,4,0,4,0.25
2013-8-20,85,72,63,75,69,63,99,92,67,30.19,30.11,2,0,3,0.00
2013-8-21,88,74,70,79,73,69,99,96,72,30.23,30.10,4,0,5,0.43
2013-8-22,89,77,68,77,71,68,99,85,53,30.14,29.98,5,1,7,0.00
2013-8-23,88,76,66,76,70,65,99,85,54,30.09,29.93,10,2,11,0.00
2013-8-24,84,71,62,66,63,55,97,77,40,30.31,30.09,8,2,8,0.09
2013-8-25,81,67,57,69,60,56,99,82,45,30.40,30.29,8,1,10,0.00
2013-8-26,84,66,53,67,58,53,99,79,37,30.33,30.11,5,1,5,0.00
2013-8-27,89,72,58,75,67,58,99,86,50,30.12,29.96,6,1,6,0.38
2013-8-28,80,73,66,78,72,65,99,96,87,29.99,29.85,4,0,4,0.00
2013-8-29,87,78,69,75,72,68,99,85,59,30.02,29.83,7,2,11,0.05
2013-8-30,88,73,-22,72,66,-32,99,84,44,30.07,29.94,98,2,98,0.28
2013-8-31,88,74,63,76,70,63,99,88,61,29.96,29.86,6,1,50,0.45
2013-9-1,90,74,67,79,72,66,99,92,58,29.90,29.78,5,1,17,0.73
2013-9-2,88,76,68,79,72,68,99,89,59,29.88,29.80,7,1,8,0.00
2013-9-3,89,76,68,79,72,68,99,87,51,29.94,29.80,4,0,7,3.02
2013-9-4,86,72,-18,72,67,-18,99,84,53,30.10,29.94,7,1,7,3.02
2013-9-5,88,71,61,70,61,49,99,77,26,30.10,30.02,8,1,8,0.38
2013-9-6,103,69,59,100,61,56,98,79,40,30.18,30.09,51,2,51,0.02
2013-9-7,84,67,-2,66,60,-2,99,81,26,30.14,29.98,8,1,8,3.02
2013-9-8,88,71,59,70,63,55,99,81,34,29.99,29.91,4,1,5,0.00
2013-9-9,87,73,63,80,68,63,99,85,53,30.16,29.99,49,1,49,0.00
2013-9-10,120,75,64,100,69,63,99,84,55,30.23,30.14,49,1,49,0.45
2013-9-11,89,74,-17,73,68,-23,99,83,33,30.21,30.07,49,1,49,1.51
2013-9-12,90,76,66,75,69,66,99,84,51,30.07,29.80,8,1,49,0.00
2013-9-13,84,72,60,69,62,49,99,75,31,29.91,29.76,10,2,10,0.00
2013-9-14,78,64,54,55,51,45,94,66,32,30.15,29.90,8,2,9,0.38
2013-9-15,82,64,14,64,55,14,99,75,39,30.24,30.11,5,1,8,6.28
2013-9-16,86,71,60,68,61,56,99,75,39,30.19,30.04,8,2,10,0.00
2013-9-17,78,65,53,59,53,46,97,70,33,30.33,30.19,8,1,9,0.00
2013-9-18,76,61,47,57,49,37,99,71,25,30.31,30.17,49,1,49,1.51
2013-9-19,77,68,53,63,61,46,96,80,52,30.19,30.08,4,0,4,0.57
2013-9-20,75,65,62,74,64,61,99,98,93,30.10,29.99,11,1,4,0.11
2013-9-21,76,69,65,73,68,65,99,98,90,29.96,29.73,5,1,7,4.11
2013-9-22,78,67,6,65,60,-17,99,82,33,29.90,29.72,9,2,13,0.17
2013-9-23,72,61,11,57,53,11,99,77,45,30.06,29.94,49,2,49,0.00
2013-9-24,74,63,54,62,58,54,97,84,60,29.97,29.94,2,0,3,0.00
2013-9-25,74,61,50,67,59,50,99,90,59,29.97,29.87,49,1,49,0.38
2013-9-26,78,64,53,64,57,49,99,82,37,30.05,29.88,8,1,9,0.00
2013-9-27,75,60,50,63,54,49,99,84,49,30.19,30.04,7,1,9,0.00
2013-9-28,73,58,48,59,52,48,99,83,48,30.26,30.17,11,1,11,0.00
2013-9-29,76,59,48,61,52,47,99,81,37,30.18,30.03,7,1,8,0.38
2013-9-30,78,60,48,64,53,48,99,83,41,30.10,29.99,5,1,6,0.00
2013-10-1,85,63,50,65,56,49,99,82,36,30.12,30.01,6,1,56,0.00
2013-10-2,85,66,52,68,56,52,99,77,32,30.13,30.04,8,1,8,0.00
2013-10-3,87,68,55,72,60,54,99,81,35,30.13,30.04,7,1,7,0.00
2013-10-4,88,69,56,69,61,56,99,80,38,30.13,30.04,6,1,8,0.00
2013-10-5,90,70,57,73,63,57,99,81,34,30.11,30.02,4,1,7,0.00
2013-10-6,85,70,58,73,65,58,99,86,56,30.06,29.93,7,1,8,0.00
2013-10-7,72,69,63,72,69,60,99,98,90,30.00,29.84,6,1,9,1.23
2013-10-8,64,60,58,60,50,46,89,71,57,30.21,30.00,11,3,17,0.01
2013-10-9,64,58,54,57,53,50,99,84,74,30.20,30.09,15,5,15,0.11
2013-10-10,62,57,53,60,56,27,99,98,34,30.09,29.93,13,4,13,0.02
2013-10-11,68,62,59,64,61,58,99,96,84,29.97,29.90,8,2,8,0.04
2013-10-12,70,64,61,67,63,60,99,97,89,30.09,29.95,7,2,8,0.01
2013-10-13,67,63,61,66,63,61,99,98,93,30.21,30.08,10,3,11,0.04
2013-10-14,66,61,55,63,60,55,99,96,88,30.25,30.18,8,3,14,0.02
2013-10-15,74,61,50,62,56,49,99,86,57,30.21,30.05,8,2,8,0.00
2013-10-16,72,65,58,65,62,57,99,91,72,30.06,29.95,4,1,4,0.00
2013-10-17,74,66,58,68,63,58,99,92,66,29.97,29.83,4,1,6,0.00
2013-10-18,70,61,53,66,53,45,99,76,42,30.05,29.87,10,2,12,0.01
2013-10-19,68,60,54,66,59,54,99,98,92,29.98,29.81,3,0,4,0.01
2013-10-20,64,51,39,53,44,37,99,81,39,30.12,29.90,8,1,10,0.01
2013-10-21,68,49,35,56,43,35,99,83,34,30.16,29.99,4,1,5,0.00
2013-10-22,69,57,48,60,54,47,99,91,58,30.00,29.79,4,0,4,0.00
2013-10-23,66,57,45,58,47,31,99,73,29,29.99,29.68,12,3,17,0.04
2013-10-24,59,45,33,40,33,28,96,67,32,30.17,29.99,11,2,11,0.00
2013-10-25,56,44,32,39,31,22,92,64,28,30.35,30.17,11,2,13,0.00
2013-10-26,59,41,27,40,31,26,98,72,30,30.35,30.05,10,1,10,0.00
2013-10-27,67,50,36,45,38,30,98,69,27,30.12,30.03,7,1,8,0.00
2013-10-28,70,52,38,53,46,37,99,83,40,30.25,30.12,4,1,6,0.00
2013-10-29,72,58,48,59,52,47,99,84,50,30.33,30.24,4,1,5,0.00
2013-10-30,72,58,48,61,54,47,99,89,64,30.29,30.15,4,0,5,0.00
2013-10-31,75,61,50,65,56,50,99,85,58,30.19,29.91,6,1,10,0.00
2013-11-1,72,67,63,70,66,62,99,94,79,29.90,29.64,8,2,11,0.21
2013-11-2,71,59,48,62,51,38,99,80,32,29.93,29.69,11,2,11,0.07
2013-11-3,64,47,34,45,38,32,99,75,32,30.37,29.93,12,2,14,0.00
2013-11-4,55,41,32,38,32,26,99,75,35,30.56,30.37,10,2,11,0.00
2013-11-5,58,47,33,48,40,32,95,78,60,30.54,30.43,7,2,9,0.00
2013-11-6,71,54,42,55,48,41,99,83,50,30.43,30.10,5,1,6,0.00
2013-11-7,70,58,41,65,49,29,99,77,44,30.11,29.91,16,2,16,0.01
2013-11-8,58,42,30,36,27,19,91,61,23,30.32,30.10,11,2,14,0.00
2013-11-9,58,41,26,40,30,25,98,71,28,30.37,30.17,4,1,8,0.00
2013-11-10,72,49,31,46,32,22,99,62,16,30.24,30.04,12,2,17,0.00
2013-11-11,61,42,27,39,27,20,93,63,21,30.35,30.12,8,1,8,0.00
2013-11-12,60,40,30,48,31,13,98,74,36,30.42,30.03,18,3,18,0.01
2013-11-13,46,32,21,23,16,9,86,56,23,30.52,30.41,11,3,15,0.00
2013-11-14,60,35,18,34,20,8,95,63,13,30.45,27.30,6,2,59,0.00
2013-11-15,62,43,24,44,32,21,94,70,34,30.34,30.20,5,1,5,0.00
2013-11-16,60,54,47,57,52,44,99,95,88,30.27,30.21,4,1,5,0.02
2013-11-17,68,60,54,64,58,53,99,95,77,30.22,29.88,4,1,5,0.15
2013-11-18,66,66,65,66,65,64,99,99,99,29.88,29.80,7,2,10,0.00
2013-11-19,57,46,33,33,27,22,87,54,26,30.32,30.09,11,3,11,0.00
2013-11-20,52,42,32,37,30,26,90,65,39,30.45,30.31,9,2,13,0.00
2013-11-21,57,47,34,45,40,32,96,77,60,30.50,30.38,8,2,8,0.00
2013-11-22,69,57,42,59,52,40,96,84,69,30.39,30.07,4,1,8,0.00
2013-11-23,61,54,36,60,39,14,99,62,20,30.17,30.03,12,3,15,0.00
2013-11-24,42,31,20,20,5,-11,76,36,13,30.54,30.17,21,5,22,0.00
2013-11-25,42,28,14,21,11,-2,90,56,16,30.58,30.37,4,1,7,0.00
2013-11-26,62,42,35,62,36,16,99,80,43,30.31,29.59,11,2,11,0.77
2013-11-27,46,39,29,46,36,17,99,88,58,30.14,29.49,18,5,18,0.31
2013-11-28,44,30,19,22,18,12,93,66,29,30.47,30.14,8,2,11,0.00
2013-11-29,51,31,20,33,22,18,98,75,31,30.64,30.45,9,2,11,0.00
2013-11-30,47,32,22,31,26,21,97,81,48,30.64,30.36,8,2,9,0.00
2013-12-1,59,35,22,40,27,21,99,77,27,30.36,30.02,5,1,10,0.00
2013-12-2,60,40,27,48,35,26,99,84,47,30.01,29.81,4,1,4,0.00
2013-12-3,57,43,29,48,39,29,99,87,59,29.99,29.86,4,1,5,0.04
2013-12-4,63,54,47,58,52,46,99,96,82,30.08,29.97,4,0,4,0.00
2013-12-5,69,60,52,67,60,51,99,99,89,30.12,30.02,4,1,8,0.05
2013-12-6,78,68,62,67,63,62,99,86,61,30.06,29.95,10,2,22,0.01
2013-12-7,68,47,42,65,43,32,99,85,68,30.45,29.97,14,4,14,0.22
2013-12-8,42,35,32,34,31,27,99,87,62,30.46,30.28,9,3,11,0.26
2013-12-9,43,37,34,43,37,33,99,99,99,30.28,30.06,3,1,4,0.13
2013-12-10,47,40,26,45,38,24,99,91,70,30.31,29.92,11,3,11,0.14
2013-12-11,50,32,19,32,24,18,99,79,29,30.44,30.27,7,1,8,0.00
2013-12-12,44,32,21,30,19,5,98,63,21,30.41,30.25,11,2,11,0.00
2013-12-13,52,31,18,31,21,13,96,72,21,30.38,30.25,8,1,10,0.00
2013-12-14,46,39,33,43,37,30,99,94,70,30.29,29.78,8,2,10,0.57
2013-12-15,53,41,27,47,34,25,99,81,43,30.05,29.69,15,3,15,0.02
2013-12-16,55,36,23,38,29,23,99,80,35,30.16,30.05,5,1,7,0.00
2013-12-17,60,41,26,43,33,25,99,78,40,30.11,29.85,17,2,21,0.00
2013-12-18,49,36,24,35,22,11,95,61,23,30.27,30.02,12,3,13,0.00
2013-12-19,63,39,22,34,24,11,97,64,13,30.30,30.19,8,1,8,0.00
2013-12-20,68,49,32,52,41,29,93,75,54,30.23,30.09,6,2,11,0.00
2013-12-21,74,57,41,66,53,40,99,87,60,30.14,30.01,9,2,9,0.00
2013-12-22,77,69,61,68,65,59,99,87,63,30.09,29.99,9,2,15,0.15
2013-12-23,65,59,46,65,58,37,99,95,68,30.15,29.99,13,3,17,0.73
2013-12-24,48,40,29,37,25,10,76,57,38,30.45,30.13,12,5,16,0.00
2013-12-25,39,27,18,17,12,4,89,57,23,30.54,30.38,7,2,7,0.00
2013-12-26,53,32,18,30,23,16,95,75,27,30.39,30.22,6,2,8,0.00
2013-12-27,53,32,19,35,21,12,98,73,19,30.45,30.35,4,1,7,0.00
2013-12-28,58,38,20,41,28,19,97,74,23,30.39,30.15,4,1,4,0.00
2013-12-29,54,44,35,53,44,35,99,97,89,30.15,29.69,11,2,17,1.12
2013-12-30,55,42,31,49,37,30,99,85,58,30.13,29.91,7,1,8,0.00
2013-12-31,51,39,26,39,29,17,98,72,26,30.34,30.10,12,2,14,0.02
2014-1-1,51,35,26,34,27,22,98,78,32,30.41,30.14,5,1,5,0.00
2014-1-2,47,40,30,43,37,29,99,92,71,30.14,29.57,17,1,17,0.30